Time,TemperatureF,DewpointF,PressureIn,WindDirection,WindDirectionDegrees,WindSpeedMPH,WindSpeedGustMPH,Humidity,HourlyPrecipIn,Conditions,Clouds,dailyrainin,SoftwareType,DateUTC
2013-07-08 00:02:00,61.0,57.0,30.22,North,359,0.0,0.0,87,0.00,,,-99.99,,2013-07-08 04:02:00,
2013-07-08 00:12:00,61.0,57.0,30.22,North,359,0.0,0.0,87,0.00,,,-99.99,,2013-07-08 04:12:00,
2013-07-08 00:22:00,61.0,57.0,30.22,North,359,0.0,0.0,87,0.00,,,-99.99,,2013-07-08 04:22:00,
2013-07-08 00:33:00,60.0,56.0,30.22,North,359,0.0,0.0,88,0.00,,,-99.99,,2013-07-08 04:33:00,
2013-07-08 00:42:00,60.0,56.0,30.23,North,359,0.0,0.0,88,0.00,,,-99.99,,2013-07-08 04:42:00,
2013-07-08 00:53:00,60.0,56.0,30.23,North,359,0.0,0.0,88,0.00,,,-99.99,,2013-07-08 04:53:00,
2013-07-08 01:01:00,60.0,56.0,30.23,North,359,0.0,0.0,88,0.00,,,-99.99,,2013-07-08 05:01:00,
2013-07-08 01:12:00,60.0,56.0,30.23,North,359,0.0,0.0,88,0.00,,,-99.99,,2013-07-08 05:12:00,
2013-07-08 01:22:00,60.0,56.0,30.23,North,359,0.0,0.0,88,0.00,,,-99.99,,2013-07-08 05:22:00,
2013-07-08 01:33:00,61.0,57.0,30.22,North,359,0.0,0.0,87,0.00,,,-99.99,,2013-07-08 05:33:00,
2013-07-08 01:43:00,61.0,57.0,30.22,North,359,0.0,0.0,87,0.00,,,-99.99,,2013-07-08 05:43:00,
2013-07-08 01:53:00,61.0,57.0,30.22,North,359,0.0,0.0,87,0.00,,,-99.99,,2013-07-08 05:53:00,
2013-07-08 02:01:00,61.0,57.0,30.22,North,359,0.0,0.0,87,0.00,,,-99.99,,2013-07-08 06:01:00,
2013-07-08 02:12:00,61.0,57.0,30.22,North,359,0.0,0.0,87,0.00,,,-99.99,,2013-07-08 06:12:00,
2013-07-08 02:22:00,61.0,57.0,30.22,North,359,0.0,0.0,87,0.00,,,-99.99,,2013-07-08 06:22:00,
2013-07-08 02:34:00,60.0,56.0,30.22,North,359,0.0,0.0,87,0.00,,,-99.99,,2013-07-08 06:34:00,
2013-07-08 02:43:00,60.0,56.0,30.22,North,359,0.0,0.0,87,0.00,,,-99.99,,2013-07-08 06:43:00,
2013-07-08 02:53:00,60.0,56.0,30.22,North,359,0.0,0.0,87,0.00,,,-99.99,,2013-07-08 06:53:00,
2013-07-08 03:02:00,60.0,56.0,30.22,North,359,0.0,0.0,87,0.00,,,-99.99,,2013-07-08 07:02:00,
2013-07-08 03:12:00,60.0,56.0,30.22,North,359,0.0,0.0,87,0.00,,,-99.99,,2013-07-08 07:12:00,
2013-07-08 03:22:00,60.0,56.0,30.22,North,359,0.0,0.0,87,0.00,,,-99.99,,2013-07-08 07:22:00,
2013-07-08 03:34:00,60.0,56.0,30.22,North,359,0.0,0.0,87,0.00,,,-99.99,,2013-07-08 07:34:00,
2013-07-08 03:44:00,60.0,56.0,30.21,North,359,0.0,0.0,87,0.00,,,-99.99,,2013-07-08 07:44:00,
2013-07-08 03:53:00,60.0,56.0,30.22,North,359,0.0,0.0,87,0.00,,,-99.99,,2013-07-08 07:53:00,
2013-07-08 04:02:00,60.0,56.0,30.22,North,359,0.0,0.0,87,0.00,,,-99.99,,2013-07-08 08:02:00,
2013-07-08 04:12:00,60.0,56.0,30.22,North,359,0.0,0.0,87,0.00,,,-99.99,,2013-07-08 08:12:00,
2013-07-08 04:22:00,60.0,56.0,30.22,North,359,0.0,0.0,87,0.00,,,-99.99,,2013-07-08 08:22:00,
2013-07-08 04:33:00,60.0,56.0,30.22,North,359,0.0,0.0,87,0.00,,,-99.99,,2013-07-08 08:33:00,
2013-07-08 04:53:00,59.0,55.0,30.21,North,359,0.0,0.0,87,0.00,,,-99.99,,2013-07-08 08:53:00,
2013-07-08 05:02:00,59.0,55.0,30.21,North,359,0.0,0.0,87,0.00,,,-99.99,,2013-07-08 09:02:00,
2013-07-08 05:11:00,59.0,55.0,30.21,North,359,0.0,0.0,87,0.00,,,-99.99,,2013-07-08 09:11:00,
2013-07-08 05:22:00,59.0,55.0,30.22,North,359,0.0,0.0,87,0.00,,,-99.99,,2013-07-08 09:22:00,
2013-07-08 05:34:00,59.0,55.0,30.22,North,359,0.0,0.0,87,0.00,,,-99.99,,2013-07-08 09:34:00,
2013-07-08 05:43:00,59.0,55.0,30.22,North,359,0.0,0.0,87,0.00,,,-99.99,,2013-07-08 09:43:00,
2013-07-08 05:53:00,59.0,55.0,30.22,North,359,0.0,0.0,87,0.00,,,-99.99,,2013-07-08 09:53:00,
2013-07-08 06:02:00,59.0,55.0,30.22,North,359,0.0,0.0,87,0.00,,,-99.99,,2013-07-08 10:02:00,
2013-07-08 06:11:00,59.0,55.0,30.22,North,359,0.0,0.0,87,0.00,,,-99.99,,2013-07-08 10:11:00,
2013-07-08 06:22:00,59.0,55.0,30.22,North,359,0.0,0.0,87,0.00,,,-99.99,,2013-07-08 10:22:00,
2013-07-08 06:34:00,59.0,55.0,30.22,North,359,0.0,0.0,87,0.00,,,-99.99,,2013-07-08 10:34:00,
2013-07-08 06:43:00,59.0,55.0,30.22,North,359,0.0,0.0,87,0.00,,,-99.99,,2013-07-08 10:43:00,
2013-07-08 06:53:00,59.0,55.0,30.22,North,359,0.0,0.0,87,0.00,,,-99.99,,2013-07-08 10:53:00,
2013-07-08 07:02:00,59.0,55.0,30.22,North,359,0.0,0.0,87,0.00,,,-99.99,,2013-07-08 11:02:00,
2013-07-08 07:11:00,59.0,55.0,30.22,North,359,0.0,0.0,87,0.00,,,-99.99,,2013-07-08 11:11:00,
2013-07-08 07:23:00,59.0,55.0,30.22,North,359,0.0,0.0,87,0.00,,,-99.99,,2013-07-08 11:23:00,
2013-07-08 07:33:00,59.0,55.0,30.22,North,359,0.0,0.0,87,0.00,,,-99.99,,2013-07-08 11:33:00,
2013-07-08 07:43:00,59.0,55.0,30.22,North,359,0.0,0.0,87,0.00,,,-99.99,,2013-07-08 11:43:00,
2013-07-08 07:53:00,59.0,55.0,30.22,North,359,0.0,0.0,87,0.00,,,-99.99,,2013-07-08 11:53:00,
2013-07-08 08:02:00,60.0,56.0,30.22,North,359,0.0,0.0,86,0.00,,,-99.99,,2013-07-08 12:02:00,
2013-07-08 08:12:00,60.0,56.0,30.22,North,359,0.0,0.0,86,0.00,,,-99.99,,2013-07-08 12:12:00,
2013-07-08 08:22:00,61.0,57.0,30.23,North,359,0.0,0.0,86,0.00,,,-99.99,,2013-07-08 12:22:00,
2013-07-08 08:34:00,61.0,56.0,30.23,North,359,0.0,0.0,85,0.00,,,-99.99,,2013-07-08 12:34:00,
2013-07-08 08:43:00,61.0,56.0,30.24,North,359,0.0,0.0,85,0.00,,,-99.99,,2013-07-08 12:43:00,
2013-07-08 08:53:00,61.0,56.0,30.24,North,359,0.0,0.0,85,0.00,,,-99.99,,2013-07-08 12:53:00,
2013-07-08 09:02:00,62.0,57.0,30.24,North,359,0.0,0.0,84,0.00,,,-99.99,,2013-07-08 13:02:00,
2013-07-08 09:11:00,62.0,57.0,30.24,North,359,0.0,0.0,84,0.00,,,-99.99,,2013-07-08 13:11:00,
2013-07-08 09:22:00,63.0,58.0,30.24,North,359,0.0,0.0,83,0.00,,,-99.99,,2013-07-08 13:22:00,
2013-07-08 09:53:00,64.0,59.0,30.25,North,359,0.0,0.0,83,0.00,,,-99.99,,2013-07-08 13:53:00,
2013-07-08 10:02:00,65.0,60.0,30.25,North,359,0.0,0.0,83,0.00,,,-99.99,,2013-07-08 14:02:00,
2013-07-08 10:12:00,65.0,60.0,30.25,North,359,0.0,0.0,83,0.00,,,-99.99,,2013-07-08 14:12:00,
2013-07-08 10:22:00,65.0,60.0,30.25,North,359,0.0,0.0,83,0.00,,,-99.99,,2013-07-08 14:22:00,
2013-07-08 10:34:00,67.0,63.0,30.27,North,359,0.0,0.0,86,0.00,,,-99.99,,2013-07-08 14:34:00,
2013-07-08 10:43:00,66.0,64.0,30.27,North,359,0.0,0.0,93,0.00,,,-99.99,,2013-07-08 14:43:00,
2013-07-08 10:53:00,66.0,64.0,30.27,North,359,0.0,0.0,93,0.00,,,-99.99,,2013-07-08 14:53:00,
2013-07-08 11:02:00,67.0,65.0,30.27,North,359,0.0,0.0,94,0.00,,,-99.99,,2013-07-08 15:02:00,
2013-07-08 11:11:00,67.0,65.0,30.28,North,359,0.0,0.0,94,0.00,,,-99.99,,2013-07-08 15:11:00,
2013-07-08 11:22:00,68.0,67.0,30.27,North,359,0.0,0.0,95,0.00,,,-99.99,,2013-07-08 15:22:00,
2013-07-08 11:33:00,69.0,67.0,30.27,North,359,0.0,0.0,94,0.00,,,-99.99,,2013-07-08 15:33:00,
2013-07-08 11:43:00,69.0,67.0,30.27,North,359,0.0,0.0,94,0.00,,,-99.99,,2013-07-08 15:43:00,
2013-07-08 11:53:00,69.0,67.0,30.27,North,359,0.0,0.0,94,0.00,,,-99.99,,2013-07-08 15:53:00,
2013-07-08 12:01:00,69.0,67.0,30.27,North,359,0.0,0.0,94,0.00,,,-99.99,,2013-07-08 16:01:00,
2013-07-08 12:43:00,72.0,67.0,30.28,North,359,0.0,0.0,84,0.00,,,-99.99,,2013-07-08 16:43:00,
2013-07-08 12:57:00,72.0,67.0,30.28,North,359,0.0,0.0,84,0.00,,,-99.99,,2013-07-08 16:57:00,
2013-07-08 13:07:00,73.0,67.0,30.28,North,359,0.0,0.0,81,0.00,,,-99.99,,2013-07-08 17:07:00,
2013-07-08 13:14:00,74.0,68.0,30.28,North,359,0.0,0.0,82,0.00,,,-99.99,,2013-07-08 17:14:00,
2013-07-08 13:28:00,74.0,68.0,30.28,North,359,0.0,0.0,82,0.00,,,-99.99,,2013-07-08 17:28:00,
2013-07-08 13:46:00,74.0,66.0,30.28,North,359,0.0,0.0,76,0.00,,,-99.99,,2013-07-08 17:46:00,
2013-07-08 14:10:00,74.0,67.0,30.28,North,359,0.0,0.0,79,0.00,,,-99.99,,2013-07-08 18:10:00,
2013-07-08 14:34:00,74.0,65.0,30.28,North,359,0.0,0.0,74,0.00,,,-99.99,,2013-07-08 18:34:00,
2013-07-08 14:44:00,74.0,65.0,30.28,North,359,0.0,0.0,74,0.00,,,-99.99,,2013-07-08 18:44:00,
2013-07-08 14:56:00,75.0,66.0,30.27,North,359,0.0,0.0,74,0.00,,,-99.99,,2013-07-08 18:56:00,
2013-07-08 15:13:00,74.0,66.0,30.26,North,359,0.0,0.0,75,0.00,,,-99.99,,2013-07-08 19:13:00,
2013-07-08 15:53:00,73.0,65.0,30.27,North,359,0.0,0.0,76,0.00,,,-99.99,,2013-07-08 19:53:00,
2013-07-08 16:14:00,74.0,67.0,30.26,North,359,0.0,0.0,79,0.00,,,-99.99,,2013-07-08 20:14:00,
2013-07-08 16:23:00,75.0,67.0,30.26,North,359,0.0,0.0,76,0.00,,,-99.99,,2013-07-08 20:23:00,
2013-07-08 16:31:00,75.0,67.0,30.26,North,359,0.0,0.0,76,0.00,,,-99.99,,2013-07-08 20:31:00,
2013-07-08 16:44:00,75.0,67.0,30.25,North,359,0.0,0.0,76,0.00,,,-99.99,,2013-07-08 20:44:00,
2013-07-08 17:00:00,75.0,67.0,30.24,North,359,0.0,0.0,76,0.00,,,-99.99,,2013-07-08 21:00:00,
2013-07-08 17:21:00,75.0,67.0,30.24,North,359,0.0,0.0,76,0.00,,,-99.99,,2013-07-08 21:21:00,
2013-07-08 17:57:00,71.0,65.0,30.23,North,359,0.0,0.0,82,0.00,,,-99.99,,2013-07-08 21:57:00,
2013-07-08 18:16:00,71.0,65.0,30.23,North,359,0.0,0.0,82,0.00,,,-99.99,,2013-07-08 22:16:00,
2013-07-08 18:24:00,71.0,66.0,30.23,North,359,0.0,0.0,83,0.00,,,-99.99,,2013-07-08 22:24:00,
2013-07-08 19:00:00,69.0,66.0,30.23,North,359,0.0,0.0,90,0.00,,,-99.99,,2013-07-08 23:00:00,
2013-07-08 19:22:00,69.0,66.0,30.23,North,359,0.0,0.0,90,0.00,,,-99.99,,2013-07-08 23:22:00,
2013-07-08 19:32:00,69.0,66.0,30.23,North,359,0.0,0.0,90,0.00,,,-99.99,,2013-07-08 23:32:00,
2013-07-08 20:00:00,68.0,66.0,30.24,North,359,0.0,0.0,94,0.00,,,-99.99,,2013-07-09 00:00:00,
2013-07-08 20:09:00,65.0,64.0,30.24,North,359,0.0,0.0,96,0.00,,,-99.99,,2013-07-09 00:09:00,
2013-07-08 20:17:00,66.0,65.0,30.24,North,359,0.0,0.0,96,0.00,,,-99.99,,2013-07-09 00:17:00,
2013-07-08 20:23:00,66.0,65.0,30.24,North,359,0.0,0.0,96,0.00,,,-99.99,,2013-07-09 00:23:00,
2013-07-08 20:42:00,65.0,64.0,30.24,North,359,0.0,0.0,96,0.00,,,-99.99,,2013-07-09 00:42:00,
2013-07-08 20:54:00,65.0,64.0,30.24,North,359,0.0,0.0,96,0.00,,,-99.99,,2013-07-09 00:54:00,
2013-07-08 21:35:00,63.0,62.0,30.24,North,359,0.0,0.0,97,0.00,,,-99.99,,2013-07-09 01:35:00,
2013-07-08 21:55:00,63.0,62.0,30.26,North,359,0.0,0.0,97,0.00,,,-99.99,,2013-07-09 01:55:00,
2013-07-08 22:10:00,63.0,62.0,30.26,North,359,0.0,0.0,97,0.00,,,-99.99,,2013-07-09 02:10:00,
2013-07-08 22:27:00,-999.0,-99.9,30.26,North,359,0.0,0.0,98,0.00,,,-99.99,,2013-07-09 02:27:00,
2013-07-08 23:24:00,64.0,63.0,30.28,North,359,0.0,0.0,96,0.00,,,-99.99,,2013-07-09 03:24:00,